Location: Orange Harbor Mobile Home Park
(26.6923°N, 81.7937°W)
Time: 08:36:55
(UTC+00:00)

SJ-11-01 - Pass Details

Date: 19 September 2020
Orbit: 684 x 701 km, 98.0° (Epoch: 30 October)

Event Time Altitude Azimuth Distance (km) Brightness Sun altitude
Rises 00:32:08 0° 162° (SSE) 3,068 7.4 -15.2°
Reaches altitude 10° 00:34:23 10° 160° (SSE) 2,151 6.5 -15.7°
Maximum altitude 00:39:04 71° 77° (ENE) 738 4.2 -16.7°
Drops below altitude 10° 00:43:46 10° 354° (N) 2,152 7.0 -17.8°
Sets 00:46:01 0° 352° (N) 3,069 7.9 -18.3°
